Meteo pe oră la Bolshie Misniki

Astăzi, 9 Mai, Duminică

Timp Temperatura Precipitaţii Vânt Presiune Umiditate
00:00 -1°C° 0 mm 4 m/s 742 mmHg 81%
01:00 -1°C° 0 mm 4 m/s 742 mmHg 82%
02:00 -1°C° 0 mm 4 m/s 743 mmHg 84%
03:00 -2°C° 0 mm 4 m/s 743 mmHg 84%
04:00 -1°C° 0 mm 3 m/s 744 mmHg 84%
05:00 -1°C° 0 mm 3 m/s 744 mmHg 84%
06:00 0°C° 0 mm 4 m/s 745 mmHg 76%
07:00 +3°C° 0 mm 4 m/s 745 mmHg 67%
08:00 +5°C° 0 mm 4 m/s 746 mmHg 58%
09:00 +6°C° 0 mm 5 m/s 746 mmHg 53%
10:00 +7°C° 0 mm 5 m/s 746 mmHg 49%
11:00 +8°C° 0 mm 5 m/s 747 mmHg 44%
12:00 +9°C° 0 mm 5 m/s 747 mmHg 42%
13:00 +10°C° 0 mm 5 m/s 747 mmHg 40%
14:00 +10°C° 0 mm 5 m/s 747 mmHg 38%
15:00 +11°C° 0 mm 4 m/s 748 mmHg 41%
16:00 +11°C° 0 mm 3 m/s 748 mmHg 43%
17:00 +11°C° 0 mm 3 m/s 748 mmHg 45%
18:00 +9°C° 0 mm 3 m/s 748 mmHg 52%
19:00 +7°C° 0 mm 2 m/s 749 mmHg 59%
20:00 +5°C° 0 mm 2 m/s 749 mmHg 66%
21:00 +5°C° 0 mm 2 m/s 750 mmHg 65%
22:00 +4°C° 0 mm 2 m/s 750 mmHg 64%
23:00 +4°C° 0 mm 2 m/s 750 mmHg 63%

Mâine, 10 Mai, Luni

Timp Temperatura Precipitaţii Vânt Presiune Umiditate
00:00 +3°C° 0 mm 2 m/s 750 mmHg 63%
01:00 +3°C° 0 mm 2 m/s 751 mmHg 64%
02:00 +3°C° 0 mm 2 m/s 751 mmHg 64%
03:00 +3°C° 0 mm 2 m/s 751 mmHg 66%
04:00 +3°C° 0 mm 2 m/s 751 mmHg 68%
05:00 +3°C° 0 mm 2 m/s 752 mmHg 70%
06:00 +4°C° 0 mm 3 m/s 752 mmHg 65%
07:00 +7°C° 0 mm 3 m/s 752 mmHg 60%
08:00 +9°C° 0 mm 3 m/s 752 mmHg 56%
09:00 +11°C° 0 mm 4 m/s 752 mmHg 53%
10:00 +12°C° 0 mm 4 m/s 752 mmHg 51%
11:00 +14°C° 0 mm 4 m/s 752 mmHg 49%
12:00 +14°C° 0 mm 3 m/s 752 mmHg 48%
13:00 +16°C° 0 mm 3 m/s 752 mmHg 48%
14:00 +16°C° 0 mm 3 m/s 752 mmHg 48%
15:00 +16°C° 0 mm 3 m/s 752 mmHg 50%
16:00 +16°C° 0 mm 2 m/s 752 mmHg 52%
17:00 +16°C° 0 mm 2 m/s 752 mmHg 54%
18:00 +14°C° 0 mm 2 m/s 752 mmHg 61%
19:00 +12°C° 0 mm 2 m/s 752 mmHg 68%
20:00 +9°C° 0 mm 2 m/s 752 mmHg 75%
21:00 +8°C° 0 mm 2 m/s 752 mmHg 75%
22:00 +8°C° 0 mm 2 m/s 752 mmHg 75%
23:00 +7°C° 0 mm 2 m/s 752 mmHg 75%

Poimâine, 11 Mai, Marţi

Timp Temperatura Precipitaţii Vânt Presiune Umiditate
00:00 +7°C° 0 mm 2 m/s 752 mmHg 75%
01:00 +6°C° 0 mm 2 m/s 752 mmHg 74%
02:00 +6°C° 0 mm 2 m/s 753 mmHg 74%
03:00 +6°C° 0 mm 2 m/s 753 mmHg 75%
04:00 +6°C° 0 mm 2 m/s 752 mmHg 76%
05:00 +5°C° 0 mm 2 m/s 752 mmHg 77%
06:00 +7°C° 0 mm 2 m/s 753 mmHg 70%
07:00 +10°C° 0 mm 3 m/s 753 mmHg 63%
08:00 +12°C° 0 mm 3 m/s 753 mmHg 57%
09:00 +13°C° 0 mm 3 m/s 752 mmHg 52%
10:00 +14°C° 0 mm 3 m/s 752 mmHg 47%
11:00 +17°C° 0 mm 4 m/s 752 mmHg 43%
12:00 +17°C° 0 mm 4 m/s 751 mmHg 42%
13:00 +18°C° 0 mm 4 m/s 751 mmHg 40%
14:00 +19°C° 0 mm 4 m/s 751 mmHg 39%
15:00 +19°C° 0 mm 3 m/s 751 mmHg 44%
16:00 +18°C° 0 mm 3 m/s 751 mmHg 49%
17:00 +18°C° 0 mm 3 m/s 750 mmHg 54%
18:00 +16°C° 0 mm 3 m/s 750 mmHg 63%
19:00 +14°C° 0 mm 3 m/s 750 mmHg 71%
20:00 +12°C° 0 mm 3 m/s 750 mmHg 79%
21:00 +11°C° 0 mm 3 m/s 750 mmHg 83%
22:00 +11°C° 0 mm 3 m/s 750 mmHg 86%
23:00 +10°C° 0 mm 3 m/s 750 mmHg 89%

12 Mai, Miercuri

Timp Temperatura Precipitaţii Vânt Presiune Umiditate
00:00 +10°C° 0 mm 3 m/s 750 mmHg 91%
01:00 +10°C° 0 mm 2 m/s 749 mmHg 93%
02:00 +9°C° 0 mm 2 m/s 749 mmHg 95%
03:00 +9°C° 0 mm 2 m/s 749 mmHg 96%
04:00 +9°C° 0 mm 2 m/s 749 mmHg 96%
05:00 +9°C° 0 mm 2 m/s 749 mmHg 97%
06:00 +10°C° 0 mm 2 m/s 749 mmHg 89%
07:00 +12°C° 0 mm 2 m/s 749 mmHg 82%
08:00 +14°C° 0 mm 2 m/s 749 mmHg 75%
09:00 +11°C° 0.2 mm 3 m/s 749 mmHg 80%
10:00 +10°C° 0.2 mm 3 m/s 749 mmHg 84%
11:00 +9°C° 0.2 mm 3 m/s 748 mmHg 89%
12:00 +9°C° 0.6 mm 2 m/s 748 mmHg 90%
13:00 +9°C° 0.6 mm 2 m/s 748 mmHg 90%
14:00 +10°C° 0.6 mm 1 m/s 747 mmHg 91%
15:00 +9°C° 0 mm 2 m/s 747 mmHg 88%
16:00 +10°C° 0 mm 2 m/s 747 mmHg 85%
17:00 +11°C° 0 mm 3 m/s 746 mmHg 82%
18:00 +10°C° 0 mm 3 m/s 746 mmHg 86%
19:00 +9°C° 0 mm 3 m/s 746 mmHg 90%
20:00 +9°C° 0 mm 3 m/s 745 mmHg 93%
21:00 +8°C° 0 mm 3 m/s 745 mmHg 93%
22:00 +8°C° 0 mm 3 m/s 745 mmHg 93%
23:00 +7°C° 0 mm 4 m/s 744 mmHg 94%

13 Mai, Joi

Timp Temperatura Precipitaţii Vânt Presiune Umiditate
00:00 +7°C° 0 mm 4 m/s 744 mmHg 94%
01:00 +7°C° 0 mm 4 m/s 743 mmHg 94%
02:00 +8°C° 0 mm 5 m/s 743 mmHg 95%
03:00 +8°C° 0.2 mm 5 m/s 742 mmHg 94%
04:00 +8°C° 0.2 mm 5 m/s 742 mmHg 93%
05:00 +8°C° 0.2 mm 6 m/s 742 mmHg 92%
06:00 +8°C° 0.2 mm 6 m/s 742 mmHg 89%
07:00 +8°C° 0.2 mm 6 m/s 742 mmHg 86%
08:00 +9°C° 0.2 mm 7 m/s 742 mmHg 84%
09:00 +9°C° 0.1 mm 7 m/s 742 mmHg 79%
10:00 +10°C° 0.1 mm 7 m/s 742 mmHg 75%
11:00 +11°C° 0.1 mm 7 m/s 743 mmHg 70%
12:00 +11°C° 0.1 mm 7 m/s 743 mmHg 67%
13:00 +13°C° 0.1 mm 6 m/s 743 mmHg 63%
14:00 +14°C° 0.1 mm 6 m/s 743 mmHg 60%
15:00 +14°C° 0 mm 6 m/s 743 mmHg 63%
16:00 +14°C° 0 mm 5 m/s 743 mmHg 66%
17:00 +13°C° 0 mm 4 m/s 743 mmHg 69%
18:00 +12°C° 0.1 mm 4 m/s 743 mmHg 75%
19:00 +11°C° 0.1 mm 3 m/s 743 mmHg 82%
20:00 +10°C° 0.1 mm 2 m/s 743 mmHg 88%
21:00 +10°C° 0.4 mm 2 m/s 742 mmHg 91%
22:00 +10°C° 0.4 mm 2 m/s 742 mmHg 94%
23:00 +10°C° 0.4 mm 3 m/s 742 mmHg 97%

14 Mai, Vineri

Timp Temperatura Precipitaţii Vânt Presiune Umiditate
00:00 +10°C° 0.9 mm 3 m/s 741 mmHg 97%
01:00 +11°C° 0.9 mm 3 m/s 740 mmHg 97%
02:00 +11°C° 0.9 mm 3 m/s 740 mmHg 98%
03:00 +11°C° 0.8 mm 3 m/s 740 mmHg 98%
04:00 +11°C° 0.8 mm 3 m/s 739 mmHg 97%
05:00 +12°C° 0.8 mm 4 m/s 739 mmHg 97%
06:00 +12°C° 0.8 mm 4 m/s 739 mmHg 97%
07:00 +12°C° 0.8 mm 4 m/s 739 mmHg 97%
08:00 +12°C° 0.8 mm 4 m/s 739 mmHg 97%
09:00 +13°C° 0.2 mm 4 m/s 739 mmHg 93%
10:00 +14°C° 0.2 mm 4 m/s 739 mmHg 89%
11:00 +15°C° 0.2 mm 4 m/s 739 mmHg 85%
12:00 +15°C° 0.5 mm 4 m/s 739 mmHg 84%
13:00 +17°C° 0.5 mm 4 m/s 739 mmHg 84%
14:00 +17°C° 0.5 mm 3 m/s 739 mmHg 83%
15:00 +17°C° 0.5 mm 3 m/s 739 mmHg 82%
16:00 +17°C° 0.5 mm 3 m/s 739 mmHg 82%
17:00 +18°C° 0.5 mm 3 m/s 739 mmHg 81%
18:00 +16°C° 0.6 mm 2 m/s 739 mmHg 85%
19:00 +15°C° 0.6 mm 2 m/s 739 mmHg 89%
20:00 +14°C° 0.6 mm 2 m/s 739 mmHg 93%
21:00 +13°C° 0.1 mm 2 m/s 739 mmHg 94%
22:00 +12°C° 0.1 mm 2 m/s 739 mmHg 94%
23:00 +12°C° 0.1 mm 2 m/s 739 mmHg 94%
Arată mai mult

Formular de consimțământ

Meteoprog și furnizorii noștri de servicii pot stoca și accesa date personale, precum cookies, identificatori de dispozitiv sau alte tehnologii similare pe dispozitivul dumneavoastră și procesa astfel de date pentru a personaliza conținutul și reclamele, dar și pentru a oferi caracteristici de social media și pentru a analiza traficul.

  • Stocarea și/sau accesarea informațiilor pe dispozitivul dumneavoastră

    Cookies, identificatori de dispozitiv sau alte informații pot fi stocate sau accesate pe dispozitiv în scopurile indicate mai sus.

  • Reclame și conținut personalizat, evaluarea reclamelor și a conținutului, informații despre audiențe și dezvoltarea produselor

    Reclamele și conținutul pot fi personalizate pe baza unui profil. Pot fi adăugate date suplimentare pentru a personaliza mai bine reclamele și conținutul. Performanța reclamelor și conținutului poate fi măsurată. Pot fi obținute informații despre utilizatorii care au văzut reclamele și conținutul. Aceste date pot fi utilizate pentru a dezvolta sau îmbunătăți experiența utilizatorilor, sistemele și software-ul.

Dând clic pe ‘Sunt de acord’, permiteți utilizarea cookie-urilor menționate, a identificatorilor de dispozitiv, balizelor web sau altor tehnologii similare. Setările pot fi modificate din browser-ul dispozitivului dumneavoastră.

În anumite scopuri, interesele legitime pot prima asupra consimțământului. Puteți citi mai multe informații în acest sens în Politica privind Confidențialitatea Datelor și Cookie.